FW2982 Weather Reports


time (UTC)temp
C
wind
direction
speed
KPH
gust
KPH
rain 1hr
cm
rain 24hr
cm
rain mn
cm
humidity
%
barometer
mb
20260901225238 30 258 0.0 0.0 0.00 0.00 0.00 78 1012.1
20260901224739 30 258 0.0 0.0 0.00 0.00 0.00 78 1012.1
20260901224237 30 258 0.0 0.0 0.00 0.00 0.00 77 1012.1
20260901223734 30 258 0.0 0.0 0.00 0.00 0.00 77 1012.0
20260901223234 30 258 0.0 1.6 0.00 0.00 0.00 76 1012.0
20260901222732 30 258 0.0 3.2 0.00 0.00 0.00 75 1012.0
20260901222233 30 258 0.0 3.2 0.00 0.00 0.00 73 1012.1
20260901221732 30 258 0.0 3.2 0.00 0.00 0.00 73 1012.1
20260901221233 30 282 0.0 0.0 0.00 0.00 0.00 74 1012.1
20260901220731 31 282 0.0 0.0 0.00 0.00 0.00 73 1012.0
20260901220232 31 282 0.0 1.6 0.00 0.00 0.00 72 1012.1
20260901215732 31 282 0.0 1.6 0.00 0.00 0.00 72 1012.1
20260901215233 31 282 0.0 0.0 0.00 0.00 0.00 71 1012.4
20260901215014 31 282 0.0 1.6 0.00 0.00 0.00 69 1012.4
20260901214505 32 282 0.0 3.2 0.00 0.00 0.00 70 1012.4
20260901213726 32 282 1.6 3.2 0.00 0.00 0.00 68 1012.3
20260901213227 32 224 0.0 1.6 0.00 0.00 0.00 68 1012.3
20260901212727 32 224 0.0 1.6 0.00 0.00 0.00 65 1012.4
20260901212504 33 282 0.0 3.2 0.00 0.00 0.00 65 1012.4
20260901211722 33 282 0.0 3.2 0.00 0.00 0.00 66 1012.4
20260901211222 33 285 0.0 1.6 0.00 0.00 0.00 66 1012.3
20260901210723 33 272 0.0 3.2 0.00 0.00 0.00 64 1012.3
20260901210447 33 268 1.6 3.2 0.00 0.00 0.00 63 1012.4
20260901205945 33 247 0.0 4.8 0.00 0.00 0.00 63 1012.4
20260901205208 33 247 0.0 4.8 0.00 0.00 0.00 63 1012.4
20260901204947 33 289 0.0 1.6 0.00 0.00 0.00 67 1012.5
20260901204206 33 289 0.0 4.8 0.00 0.00 0.00 63 1012.5
20260901203705 33 289 0.0 4.8 0.00 0.00 0.00 63 1012.4
20260901203202 33 285 0.0 4.8 0.00 0.00 0.00 62 1012.6
20260901202943 33 285 0.0 4.8 0.00 0.00 0.00 62 1012.6
20260901202204 33 355 1.6 3.2 0.00 0.00 0.00 63 1012.6
20260901201942 33 6 0.0 3.2 0.00 0.00 0.00 65 1012.6
20260901201441 33 234 0.0 4.8 0.00 0.00 0.00 65 1012.7
20260901200702 32 234 0.0 4.8 0.00 0.00 0.00 66 1012.8
20260901200202 32 278 0.0 0.0 0.00 0.00 0.00 68 1012.9
20260901195704 32 278 0.0 3.2 0.00 0.00 0.00 65 1012.9
20260901195203 33 278 0.0 3.2 0.00 0.00 0.00 64 1013.0
20260901194702 33 24 1.6 9.7 0.00 0.00 0.00 62 1013.0
20260901194159 33 314 1.6 9.7 0.00 0.00 0.00 64 1013.1
20260901193657 33 319 1.6 3.2 0.00 0.00 0.00 70 1013.2
20260901193158 33 321 0.0 3.2 0.00 0.00 0.00 69 1013.2
20260901192657 32 268 0.0 1.6 0.00 0.00 0.00 70 1013.3
20260901192132 32 268 0.0 1.6 0.00 0.00 0.00 71 1013.3
20260901191630 32 268 0.0 3.2 0.00 0.00 0.00 71 1013.4
20260901191131 32 268 0.0 3.2 0.00 0.00 0.00 70 1013.6
20260901190632 32 288 0.0 6.4 0.00 0.00 0.00 67 1013.6
20260901190132 33 285 1.6 6.4 0.00 0.00 0.00 65 1013.8
20260901185632 33 302 1.6 4.8 0.00 0.00 0.00 63 1013.9
20260901185132 33 258 0.0 4.8 0.00 0.00 0.00 61 1013.9
20260901184631 34 258 1.6 4.8 0.00 0.00 0.00 60 1013.9
20260901184131 35 292 1.6 8.0 0.00 0.00 0.00 58 1013.8
20260901183631 35 279 3.2 8.0 0.00 0.00 0.00 59 1013.9
20260901183132 35 0 1.6 6.4 0.00 0.00 0.00 58 1013.7
20260901182632 35 28 3.2 6.4 0.00 0.00 0.00 60 1013.8
20260901182131 35 357 0.0 4.8 0.00 0.00 0.00 59 1013.7
20260901181633 35 254 3.2 4.8 0.00 0.00 0.00 59 1013.5
20260901181131 34 336 1.6 4.8 0.00 0.00 0.00 58 1013.6
20260901180630 35 302 1.6 4.8 0.00 0.00 0.00 57 1013.7
20260901180131 34 182 3.2 4.8 0.00 0.00 0.00 58 1013.7
20260901175631 35 78 1.6 4.8 0.00 0.00 0.00 58 1013.7
20260901175132 35 247 3.2 4.8 0.00 0.00 0.00 57 1013.7
20260901174938 34 227 1.6 8.0 0.00 0.00 0.00 59 1013.8
20260901174932 34 324 1.6 6.4 0.00 0.00 0.00 62 1013.7
20260901173631 34 319 3.2 8.0 0.00 0.00 0.00 62 1013.7
20260901173131 34 344 1.6 4.8 0.00 0.00 0.00 61 1013.7
20260901172631 34 321 3.2 6.4 0.00 0.00 0.00 60 1013.7
20260901172118 35 202 3.2 6.4 0.00 0.00 0.00 59 1013.7
20260901171858 34 275 3.2 6.4 0.00 0.00 0.00 61 1013.7
20260901171117 34 195 1.6 6.4 0.00 0.00 0.00 61 1013.7
20260901170616 34 28 3.2 6.4 0.00 0.00 0.00 61 1013.7
20260901170112 34 251 1.6 6.4 0.00 0.00 0.00 62 1013.8
20260901165607 35 343 3.2 6.4 0.00 0.00 0.00 62 1014.0
20260901165104 34 341 3.2 8.0 0.00 0.00 0.00 63 1014.1
20260901164602 34 142 1.6 8.0 0.00 0.00 0.00 62 1014.1
20260901164101 34 353 1.6 4.8 0.00 0.00 0.00 64 1014.2
20260901163839 33 296 3.2 4.8 0.00 0.00 0.00 65 1014.1
20260901163103 32 276 1.6 4.8 0.00 0.00 0.00 66 1014.2
20260901162837 33 276 1.6 9.7 0.00 0.00 0.00 64 1014.3
20260901162058 33 0 1.6 9.7 0.00 0.00 0.00 63 1014.2
20260901161558 34 231 1.6 8.0 0.00 0.00 0.00 63 1014.3
20260901161342 35 336 1.6 8.0 0.00 0.00 0.00 61 1014.4
20260901160559 35 302 1.6 4.8 0.00 0.00 0.00 62 1014.4
20260901160117 35 331 3.2 6.4 0.00 0.00 0.00 61 1014.5
20260901160110 35 340 1.6 6.4 0.00 0.00 0.00 61 1014.4
20260901155053 35 288 1.6 6.4 0.00 0.00 0.00 61 1014.5
20260901154555 34 1 3.2 8.0 0.00 0.00 0.00 61 1014.6
20260901154052 35 357 3.2 4.8 0.00 0.00 0.00 61 1014.7
20260901153831 35 272 3.2 4.8 0.00 0.00 0.00 63 1014.8
20260901153117 35 141 0.0 1.6 0.00 0.00 0.00 61 1014.8
20260901153109 34 157 0.0 1.6 0.00 0.00 0.00 65 1014.8
20260901152053 34 217 0.0 3.2 0.00 0.00 0.00 63 1014.9
20260901151554 34 193 1.6 3.2 0.00 0.00 0.00 63 1015.0
20260901151053 34 288 0.0 3.2 0.00 0.00 0.00 63 1015.0
20260901150552 34 268 1.6 4.8 0.00 0.00 0.00 64 1015.0
20260901150051 33 14 1.6 4.8 0.00 0.00 0.00 65 1014.9
20260901145552 33 337 0.0 0.0 0.00 0.00 0.00 65 1015.0
20260901145052 32 333 0.0 1.6 0.00 0.00 0.00 67 1015.0
20260901144552 32 344 0.0 1.6 0.00 0.00 0.00 68 1015.1
20260901144051 32 344 0.0 3.2 0.00 0.00 0.00 67 1015.1
20260901143552 33 340 0.0 3.2 0.00 0.00 0.00 64 1015.1
20260901143051 33 357 0.0 6.4 0.00 0.00 0.00 64 1015.1
20260901142551 33 357 3.2 6.4 0.00 0.00 0.00 64 1015.1
20260901142352 32 298 0.0 0.0 0.00 0.00 0.00 68 1015.1
20260901142348 33 305 0.0 4.8 0.00 0.00 0.00 68 1015.1
20260901141050 32 298 0.0 0.0 0.00 0.00 0.00 67 1015.1
20260901140551 32 259 0.0 0.0 0.00 0.00 0.00 66 1015.1
20260901140333 32 307 0.0 0.0 0.00 0.00 0.00 66 1015.0
20260901135829 32 203 0.0 0.0 0.00 0.00 0.00 67 1015.2
20260901135050 32 258 0.0 0.0 0.00 0.00 0.00 68 1015.1
20260901134829 32 258 0.0 0.0 0.00 0.00 0.00 70 1015.0
20260901134051 32 258 0.0 0.0 0.00 0.00 0.00 69 1015.1
20260901133551 32 16 0.0 0.0 0.00 0.00 0.00 72 1015.1
20260901133050 31 62 0.0 0.0 0.00 0.00 0.00 73 1015.1
20260901132827 31 62 0.0 0.0 0.00 0.00 0.00 75 1015.2
20260901132049 30 62 0.0 0.0 0.00 0.00 0.00 77 1015.1
20260901131550 30 62 0.0 0.0 0.00 0.00 0.00 77 1015.2
20260901131049 29 62 0.0 0.0 0.00 0.00 0.00 79 1015.3
20260901130550 30 62 0.0 0.0 0.00 0.00 0.00 79 1015.2
20260901130048 28 62 0.0 0.0 0.00 0.00 0.00 83 1015.4
20260901125548 25 62 0.0 0.0 0.00 0.00 0.00 96 1015.4
20260901125045 25 62 0.0 0.0 0.00 0.00 0.00 96 1015.4
20260901124827 25 62 0.0 0.0 0.00 0.00 0.00 96 1015.4
20260901124044 24 62 0.0 0.0 0.00 0.00 0.00 97 1015.5
20260901123545 24 62 0.0 0.0 0.00 0.00 0.00 97 1015.5
20260901123045 23 62 0.0 0.0 0.00 0.00 0.00 97 1015.5
20260901122544 23 62 0.0 0.0 0.00 0.00 0.00 97 1015.6
20260901122044 23 62 0.0 0.0 0.00 0.00 0.00 97 1015.6
20260901121545 23 62 0.0 0.0 0.00 0.00 0.00 97 1015.6
20260901121325 23 62 0.0 0.0 0.00 0.00 0.00 97 1015.5
20260901120544 23 62 0.0 0.0 0.00 0.00 0.00 97 1015.4
20260901120042 23 62 0.0 0.0 0.00 0.00 0.00 97 1015.3
20260901115545 23 62 0.0 0.0 0.00 0.00 0.00 97 1015.4
20260901115043 23 62 0.0 0.0 0.00 0.00 0.00 97 1015.4
20260901114821 23 62 0.0 0.0 0.00 0.00 0.00 97 1015.2
20260901114042 23 62 0.0 0.0 0.00 0.00 0.00 97 1015.1
20260901113543 22 62 0.0 0.0 0.00 0.00 0.00 97 1015.1
20260901113042 22 62 0.0 0.0 0.00 0.00 0.00 97 1015.1
20260901112542 22 62 0.0 0.0 0.00 0.00 0.00 97 1014.8
20260901112043 22 62 0.0 0.0 0.00 0.00 0.00 97 1014.9
20260901111542 22 62 0.0 0.0 0.00 0.00 0.00 97 1014.9
20260901111042 22 62 0.0 0.0 0.00 0.00 0.00 97 1014.9
20260901110542 22 62 0.0 0.0 0.00 0.00 0.00 97 1014.9
20260901110042 22 62 0.0 0.0 0.00 0.00 0.00 97 1014.9
20260901105538 22 62 0.0 0.0 0.00 0.00 0.00 97 1014.9
20260901105036 22 62 0.0 0.0 0.00 0.00 0.00 97 1014.9
20260901104535 22 62 0.0 0.0 0.00 0.00 0.00 97 1014.9
20260901104032 22 62 0.0 0.0 0.00 0.00 0.00 97 1014.8
20260901103531 22 62 0.0 0.0 0.00 0.00 0.00 97 1014.8
20260901103032 22 62 0.0 0.0 0.00 0.00 0.00 97 1014.7
20260901102511 22 62 0.0 0.0 0.00 0.00 0.00 97 1014.7
20260901102243 22 62 0.0 0.0 0.00 0.00 0.00 97 1014.7
20260901101504 22 62 0.0 0.0 0.00 0.00 0.00 97 1014.6
20260901101004 22 62 0.0 0.0 0.00 0.00 0.00 97 1014.6
20260901100503 22 62 0.0 0.0 0.00 0.00 0.00 97 1014.6
20260901100004 22 62 0.0 0.0 0.00 0.00 0.00 97 1014.6
20260901095504 22 62 0.0 0.0 0.00 0.00 0.00 97 1014.5
20260901095003 22 62 0.0 0.0 0.00 0.00 0.00 97 1014.6
20260901094504 22 62 0.0 0.0 0.00 0.00 0.00 97 1014.6
20260901094004 22 62 0.0 0.0 0.00 0.00 0.00 97 1014.6
20260901093505 22 62 0.0 0.0 0.00 0.00 0.00 97 1014.6
20260901093003 22 62 0.0 0.0 0.00 0.00 0.00 97 1014.7
20260901092503 22 62 0.0 0.0 0.00 0.00 0.00 97 1014.7
20260901092305 22 62 0.0 0.0 0.00 0.00 0.00 97 1014.8
20260901092017 22 62 0.0 0.0 0.00 0.00 0.00 97 1014.7
20260901091002 22 62 0.0 0.0 0.00 0.00 0.00 97 1014.9
20260901090503 22 62 0.0 0.0 0.00 0.00 0.00 97 1014.8
20260901090004 22 62 0.0 0.0 0.00 0.00 0.00 97 1014.8
20260901085505 22 62 0.0 0.0 0.00 0.00 0.00 97 1014.8
20260901085003 22 62 0.0 0.0 0.00 0.00 0.00 97 1014.8
20260901084503 22 62 0.0 0.0 0.00 0.00 0.00 97 1014.9
20260901084002 22 62 0.0 0.0 0.00 0.00 0.00 97 1014.9
20260901083503 22 62 0.0 0.0 0.00 0.00 0.00 97 1014.9
20260901083002 22 62 0.0 0.0 0.00 0.00 0.00 97 1014.9
20260901082506 22 62 0.0 0.0 0.00 0.00 0.00 97 1014.9
20260901082002 22 62 0.0 0.0 0.00 0.00 0.00 97 1014.9
20260901081502 22 62 0.0 0.0 0.00 0.00 0.00 97 1014.8
20260901081002 22 62 0.0 0.0 0.00 0.03 0.00 97 1014.7
20260901080502 22 62 0.0 0.0 0.00 0.03 0.00 97 1014.8
20260901080241 22 62 0.0 0.0 0.00 0.03 0.00 97 1014.8
20260901075502 22 62 0.0 0.0 0.00 0.03 0.00 96 1014.9
20260901075002 22 62 0.0 0.0 0.00 0.03 0.00 96 1014.9
20260901074502 22 62 0.0 0.0 0.00 0.03 0.00 96 1014.9
20260901074002 22 62 0.0 0.0 0.00 0.03 0.00 96 1015.0
20260901073501 22 62 0.0 0.0 0.00 0.03 0.00 96 1015.0
20260901073003 22 62 0.0 0.0 0.00 0.03 0.00 96 1015.0
20260901072741 22 62 0.0 0.0 0.00 0.03 0.00 97 1015.1
20260901072001 22 62 0.0 0.0 0.00 0.03 0.00 97 1015.2
20260901071505 22 62 0.0 0.0 0.00 0.03 0.00 97 1015.2
20260901071003 22 62 0.0 0.0 0.00 0.03 0.00 96 1015.1
20260901070457 22 62 0.0 0.0 0.00 0.03 0.00 96 1015.1
20260901065947 22 62 0.0 0.0 0.00 0.03 0.00 96 1015.2
20260901065448 22 62 0.0 0.0 0.00 0.03 0.00 96 1015.2
20260901064947 22 62 0.0 0.0 0.00 0.03 0.00 96 1015.3
20260901064726 22 62 0.0 0.0 0.00 0.03 0.00 96 1015.3
20260901063945 22 62 0.0 0.0 0.00 0.03 0.00 96 1015.4
20260901063446 22 62 0.0 0.0 0.00 0.03 0.00 96 1015.4
20260901063222 22 62 0.0 0.0 0.00 0.03 0.00 96 1015.5
20260901062446 22 62 0.0 0.0 0.00 0.03 0.00 96 1015.4
20260901061945 22 62 0.0 0.0 0.00 0.03 0.00 96 1015.5
20260901061440 22 62 0.0 0.0 0.00 0.03 0.00 96 1015.5
20260901060941 22 62 0.0 0.0 0.00 0.03 0.00 96 1015.5
20260901060725 22 62 0.0 0.0 0.00 0.03 0.00 96 1015.5
20260901055942 22 62 0.0 0.0 0.00 0.03 0.00 96 1015.5
20260901055441 22 62 0.0 0.0 0.00 0.03 0.00 96 1015.4
20260901054940 22 62 0.0 0.0 0.00 0.03 0.00 96 1015.6
20260901054440 22 62 0.0 0.0 0.00 0.03 0.00 96 1015.7
20260901053940 22 62 0.0 0.0 0.00 0.03 0.00 96 1015.7
20260901053438 22 62 0.0 0.0 0.00 0.03 0.00 96 1015.8
20260901052937 22 62 0.0 0.0 0.00 0.03 0.00 96 1015.9
20260901052434 23 62 0.0 0.0 0.00 0.03 0.00 96 1015.9
20260901051957 22 62 0.0 0.0 0.00 0.03 0.00 96 1016.0
20260901051949 22 62 0.0 0.0 0.00 0.03 0.00 96 1016.0
20260901050934 22 62 0.0 0.0 0.00 0.03 0.00 96 1016.0
20260901050433 22 62 0.0 0.0 0.00 0.03 0.00 96 1015.9
20260901045932 22 62 0.0 0.0 0.00 0.03 0.00 96 1016.0
20260901045431 22 62 0.0 0.0 0.00 0.03 0.00 96 1016.1
20260901044931 23 62 0.0 0.0 0.00 0.03 0.00 96 1016.1
20260901044712 22 62 0.0 0.0 0.00 0.03 0.00 96 1016.2
20260901043934 22 62 0.0 0.0 0.00 0.03 0.00 96 1016.2
20260901043431 22 62 0.0 0.0 0.00 0.03 0.00 96 1016.2
20260901042929 22 62 0.0 0.0 0.00 0.03 0.00 96 1016.2
20260901042427 22 62 0.0 0.0 0.00 0.03 0.00 96 1016.2
20260901042211 22 62 0.0 0.0 0.00 0.03 0.00 96 1016.3
20260901041428 22 62 0.0 0.0 0.00 0.03 0.00 96 1016.2
20260901040928 22 62 0.0 0.0 0.00 0.03 0.00 96 1016.2
20260901040711 22 62 0.0 0.0 0.00 0.03 0.00 96 1016.4
20260901035927 22 62 0.0 0.0 0.00 0.03 0.03 96 1016.3
20260901035427 22 62 0.0 0.0 0.00 0.03 0.03 96 1016.4
20260901034927 22 62 0.0 0.0 0.00 0.03 0.03 95 1016.3
20260901034711 23 62 0.0 0.0 0.00 0.03 0.03 95 1016.3
20260901033927 23 62 0.0 0.0 0.00 0.03 0.03 96 1016.3
20260901033453 23 62 0.0 0.0 0.00 0.03 0.03 96 1016.3
20260901033444 23 62 0.0 0.0 0.00 0.03 0.03 96 1016.3
20260901032427 23 62 0.0 0.0 0.00 0.03 0.03 96 1016.3
20260901031926 23 62 0.0 0.0 0.00 0.03 0.03 95 1016.4
20260901031428 23 62 0.0 0.0 0.00 0.03 0.03 95 1016.4
20260901031209 23 62 0.0 0.0 0.00 0.03 0.03 95 1016.4
20260901030426 23 62 0.0 0.0 0.00 0.03 0.03 95 1016.4
20260901025925 23 62 0.0 0.0 0.00 0.03 0.03 95 1016.4
20260901025426 23 62 0.0 0.0 0.00 0.03 0.03 95 1016.4
20260901025205 23 62 0.0 0.0 0.00 0.03 0.03 95 1016.4
20260901024425 23 62 0.0 0.0 0.00 0.03 0.03 95 1016.4
20260901023925 23 62 0.0 0.0 0.00 0.03 0.03 95 1016.4
20260901023426 23 62 0.0 0.0 0.00 0.03 0.03 95 1016.5
20260901022926 23 62 0.0 0.0 0.00 0.03 0.03 95 1016.4
20260901022425 23 62 0.0 0.0 0.00 0.03 0.03 95 1016.5
20260901022203 23 62 0.0 0.0 0.00 0.03 0.03 95 1016.4
20260901021426 23 62 0.0 0.0 0.00 0.03 0.03 95 1016.4
20260901020925 23 62 0.0 0.0 0.00 0.03 0.03 95 1016.3
20260901020425 23 62 0.0 0.0 0.00 0.03 0.03 95 1016.3
20260901015924 23 62 0.0 0.0 0.00 0.03 0.03 95 1016.4
20260901015424 23 62 0.0 0.0 0.00 0.03 0.03 95 1016.4
20260901014926 23 62 0.0 0.0 0.00 0.03 0.03 94 1016.3
20260901014426 23 62 0.0 0.0 0.00 0.03 0.03 94 1016.4
20260901013927 24 62 0.0 0.0 0.00 0.05 0.03 94 1016.3
20260901013425 24 62 0.0 0.0 0.00 0.08 0.03 94 1016.3
20260901012925 24 62 0.0 0.0 0.00 0.08 0.03 94 1016.2
20260901012423 24 62 0.0 0.0 0.00 0.08 0.03 94 1016.3
20260901011923 24 62 0.0 0.0 0.00 0.10 0.03 94 1016.2
20260901011707 24 62 0.0 0.0 0.00 0.13 0.03 94 1016.1
20260901010925 25 62 0.0 0.0 0.00 0.15 0.03 94 1016.2
20260901010423 25 62 0.0 0.0 0.00 0.18 0.03 94 1016.2
20260901010209 25 62 0.0 0.0 0.00 0.20 0.03 94 1016.2
20260901005424 25 62 0.0 0.0 0.00 0.23 0.03 94 1016.0
20260901004923 25 62 0.0 0.0 0.00 0.25 0.03 93 1015.9
20260901004423 25 62 0.0 0.0 0.00 0.28 0.03 93 1015.8
20260901003922 25 62 0.0 0.0 0.00 0.33 0.03 93 1015.8
20260901003422 25 62 0.0 0.0 0.00 0.36 0.03 93 1015.8
20260901003204 25 62 0.0 0.0 0.00 0.41 0.03 93 1015.8
20260901002422 25 62 0.0 0.0 0.00 0.46 0.03 92 1015.8
20260901001923 25 62 0.0 0.0 0.00 0.51 0.03 92 1015.8
20260901001701 25 62 0.0 0.0 0.00 0.58 0.03 92 1015.8
20260901000923 25 62 0.0 0.0 0.00 0.64 0.03 92 1015.7
20260901000422 25 62 0.0 0.0 0.00 0.71 0.03 91 1015.8
20260901000204 25 62 0.0 0.0 0.00 0.79 0.03 91 1015.9
20260831235422 25 62 0.0 0.0 0.00 0.89 0.03 91 1015.8
20260831234921 25 62 0.0 0.0 0.00 0.99 0.03 90 1015.8
20260831234420 25 62 0.0 0.0 0.00 1.09 0.03 90 1015.8
20260831234200 26 62 0.0 0.0 0.00 1.19 0.03 89 1015.7
20260831233452 26 62 0.0 0.0 0.00 1.30 0.03 88 1015.8
20260831233441 26 62 0.0 0.0 0.00 1.27 0.03 89 1015.8
20260831232420 26 62 0.0 0.0 0.00 1.30 0.03 87 1015.8
20260831231919 26 62 0.0 0.0 0.00 1.30 0.03 87 1015.8
20260831231419 27 62 0.0 0.0 0.00 1.30 0.03 86 1015.8
20260831230919 27 62 0.0 0.0 0.00 1.30 0.03 86 1015.9
20260831230419 27 62 0.0 0.0 0.00 1.30 0.03 86 1015.9
20260831225919 27 62 0.0 0.0 0.00 1.30 0.03 87 1015.9
20260831225420 27 62 0.0 0.0 0.00 1.30 0.03 87 1015.9